Location: Spring Creek
(38.2870°N, 100.2160°W)
Time: 23:53:36
(UTC+00:00)

Aureole 1 Rocket - Pass Details

Date: 08 May 2021
Orbit: 378 x 1372 km, 73.9° (Epoch: 21 June)

Event Time Altitude Azimuth Distance (km) Brightness Sun altitude
Rises 02:03:19 0° 209° (SSW) 3,330 6.8 -5.3°
Reaches altitude 10° 02:06:06 10° 214° (SW) 2,227 6.0 -5.8°
Maximum altitude 02:10:50 48° 289° (WNW) 784 4.2 -6.6°
Drops below altitude 10° 02:14:32 10° 5° (N) 1,735 5.7 -7.2°
Sets 02:16:29 0° 12° (NNE) 2,519 6.4 -7.6°
